Location: Cambria Heights
(40.6945°N, 73.7385°W)
Time: 16:28:41
(UTC+00:00)

Daily predictions for brighter satellites

Satellite Brightness Start Highest point End
(mag) Time Altitude Azimuth Time Altitude Azimuth Time Altitude Azimuth
Meteor 2-5 Rocket 3.7 22:19:04 10° S 22:24:38 73° E 22:30:09 10° NNE
BREEZE-M DEB (TANK) 4.1 22:25:20 10° WNW 22:27:00 15° NNW 22:28:26 10° NNE
Aureole 2 Rocket 4.1 22:27:34 10° SE 22:28:55 12° E 22:30:18 10° ENE
NOAA 12 4.2 22:24:50 10° SSE 22:30:04 83° WSW 22:35:20 10° NNW
DELTA 2 R/B (1) 4.3 22:25:02 10° W 22:30:28 56° SSW 22:35:53 10° ESE
Cosmos 1300 2.7 22:28:58 10° N 22:32:44 56° E 22:36:29 10° SSE
Cosmos 1939 Rocket 3.3 22:29:01 10° SE 22:32:54 42° ENE 22:36:48 10° N
ATLAS 2AS CENTAUR R/B 4.2 22:26:20 10° WSW 22:33:39 39° NW 22:40:54 10° NNE
SMAP 3.5 22:32:00 10° S 22:36:38 70° WSW 22:41:17 10° NNW
COSMO-SKYMED 1 3.0 22:33:29 10° NNE 22:37:36 41° E 22:41:41 10° S
Cosmos 2263 Rocket 2.8 22:35:48 10° SW 22:41:23 59° WNW 22:47:00 10° NNE
CORIOLIS 4.4 22:36:05 10° S 22:41:30 79° WSW 22:46:54 10° NNW
Okean-O 3.8 22:38:13 10° ESE 22:41:30 21° ENE 22:44:47 10° NNE
CZ-4 R/B 2.6 22:40:30 10° ESE 22:43:41 22° ENE 22:46:51 10° NNE
NOAA 11 4.3 22:38:29 10° SSE 22:43:59 84° WSW 22:49:32 10° NNW
TIMED 4.4 22:39:51 10° NNW 22:44:15 80° ENE 22:48:36 10° SSE
TELKOM 3 3.1 22:43:03 10° SW 22:45:18 57° SE 22:47:08 16° ENE
Okean O Rocket 1.9 22:41:12 10° S 22:45:38 75° WSW 22:50:05 10° NNW
Cosmos 1315 Rocket 2.8 22:45:27 10° N 22:49:26 87° W 22:53:27 10° S
ERS-2 2.8 22:48:07 10° NNE 22:51:26 32° E 22:54:43 10° SSE
COSMOS 2455 2.9 22:46:28 10° SSW 22:52:25 65° ESE 22:58:23 10° NE
H-2A R/B 4.1 22:49:01 10° SSW 22:52:41 37° W 22:56:31 10° NNW
Cosmos 1538 Rocket 4.4 22:48:26 10° N 22:53:17 39° ENE 22:58:05 10° SE
Cosmos 2279 Rocket 4.0 22:48:31 10° N 22:54:49 77° E 23:01:03 10° SSE
Cosmos 1777 Rocket 4.0 22:50:24 10° SSW 22:55:38 78° ESE 23:00:56 10° NNE
MOS 1 Rocket 3.3 22:52:54 10° NNE 22:57:04 48° E 23:01:12 10° S
ARGOS 4.1 22:55:19 10° ESE 22:59:28 23° ENE 23:03:38 10° NNE
Abrixas rocket 4.3 22:57:32 10° W 22:59:37 21° SW 23:01:41 10° SSE
SKYMED 3 4.5 22:57:16 10° NNE 23:01:38 77° ESE 23:05:58 10° S
Hubble Space Telescope 3.3 23:00:45 10° S 23:01:47 11° SSE 23:02:49 10° SSE
Meteor 1-24 Rocket 4.0 22:56:40 10° SSW 23:02:00 67° W 23:07:18 10° N
X-37B 1.3 23:01:14 10° SW 23:04:16 42° SSE 23:05:49 23° E
Cosmos 1943 3.7 22:59:22 10° NNW 23:05:00 65° WSW 23:10:33 10° S
Feng Yun 1-1 Rocket 4.1 23:02:05 10° SSE 23:07:29 82° ENE 23:13:00 10° NNW
ISS -3.5 23:04:33 10° SW 23:07:50 53° SE 23:09:26 26° ENE
YAOGAN 1 3.1 23:04:20 10° SE 23:08:16 36° ENE 23:12:13 10° N
Cosmos 1892 Rocket 3.5 23:04:42 10° S 23:09:03 90° N 23:13:24 10° N
Cosmos 1606 Rocket 4.0 23:06:06 10° NNW 23:10:28 65° W 23:14:50 10° S
CZ-2C R/B 3.8 23:09:26 19° ENE 23:11:19 22° E 23:15:35 10° SE
H-2A R/B 4.0 23:07:36 10° N 23:11:29 30° WNW 23:15:17 10° SW
Cosmos 1844 4.1 23:06:22 10° S 23:11:35 41° ESE 23:15:46 16° NE
ATLAS 3B R/B 4.0 23:12:14 10° NW 23:18:51 45° WSW 23:25:40 10° S
IRS-1C Rocket 4.0 23:17:31 10° SSE 23:22:46 83° ENE 23:28:02 10° NNW
Helios 1A Rocket 3.3 23:20:22 10° SE 23:24:15 41° ENE 23:28:10 10° N
SKYMED 2 4.2 23:21:22 10° N 23:25:38 57° WNW 23:29:53 10° SSW
CZ-2D R/B 3.6 23:22:08 10° S 23:25:58 67° W 23:29:50 10° NNW
SJ 16-02 1.2 23:24:20 10° S 23:28:41 66° ESE 23:31:28 22° NNE
Meteor 1-21 Rocket 4.2 23:24:42 10° S 23:30:07 59° E 23:35:33 10° NNE
Lacrosse 5 2.5 23:27:29 10° NNW 23:32:09 36° NE 23:33:13 33° ENE
Cosmos 1092 Rocket 4.1 23:26:40 10° SSE 23:32:36 49° E 23:38:31 10° NNE
Cosmos 990 Rocket 4.5 23:29:10 10° SSE 23:33:54 37° ESE 23:34:52 34° ENE
Cosmos 1844 Rocket 2.6 23:30:24 10° SSW 23:36:04 84° ESE 23:40:35 17° NNE
CZ-4B R/B 3.6 23:33:30 10° NNW 23:36:22 26° WNW 23:39:10 10° SW
Cosmos 44 3.9 23:32:36 10° S 23:36:48 34° ESE 23:36:59 34° ESE
Cosmos 2058 Rocket 3.5 23:35:46 10° NNW 23:40:14 65° W 23:44:41 10° S
CZ-2C R/B 3.6 23:36:04 10° S 23:41:12 64° W 23:46:41 10° NNW
SAR-Lupe-4 3.8 23:39:40 18° N 23:42:10 68° WNW 23:45:43 10° SSW
DMSP B5D1-3 4.4 23:37:33 11° NNE 23:42:33 70° ESE 23:47:36 10° S
Okean 1-7 Rocket 4.4 23:43:10 10° SSW 23:47:36 53° W 23:52:04 10° N
H-2A R/B 1.8 23:43:31 10° SSE 23:48:28 88° ENE 23:53:33 10° NNW
Nadezhda 4 Rocket 4.2 23:44:33 10° SSW 23:50:48 72° W 23:57:02 10° N
